Погода в Уйгуре

Узбекистан     41°28′44″N   60°07′30″E
темп.,
°C
ветер,
м/с
пор.,
м/с
влажн.,
%
обл.,
%
осадки,
мм/ч
давл.,
гПа
погр.,
м
3 марта, ср
ср323:00+4в356066 0.0 1028168
02:00+3вюв236559 0.0 102770
05:00+2вюв236678 0.0 102657
08:00+2юв356695 0.0 1025136
11:00+6ююв345084 0.0 1025530
14:00+9ю344419 0.0 1022962
17:00+10ю224321 0.0 10201060
20:00+9ююв23500 0.0 101950
4 марта, чт
чт423:00+7юв455115 0.0 101998
02:00+7юв485447 0.0 1017176
05:00+7юв595573 0.0 1015218
08:00+6ю475796 0.0 1016154
11:00+9сз795798 0.0 1019796
14:00+9ссз785499 0.0 10211150
17:00+10сз584181 0.0 10231942
20:00+8сз584767 0.0 1026332
5 марта, пт
пт523:00+5с685444 0.0 1028329
02:00+3ссв23610 0.0 102970
05:00+2в34660 0.0 103062
08:00+2в47710 0.0 1029159
11:00+8юв68550 0.0 1028677
14:00+11юв78370 0.0 10241347
17:00+12вюв783033 0.0 10211288
20:00+10в6103399 0.0 1019588
6 марта, сб
сб623:00+8всв7124099 0.0 1019476
02:00+7св81244100 0.0 1017430
05:00+6св71247100 0.0 1016404
08:00+6ссв61151100 0.0 1018482
11:00+8ссв6841100 0.0 1020796
14:00+9с6736100 0.0 10201043
17:00+10с5631100 0.0 10201279
20:00+7ссв3537100 0.0 1021165
7 марта, вс
вс723:00+5всв234487 0.0 102238
02:00+3вюв22500 0.0 102022
05:00+3юв33510 0.0 101931
08:00+3юв34510 0.0 101975
11:00+9ююв56341 0.0 1018562
14:00+12ююв562782 0.0 10161116
17:00+13ююв562385 0.0 10131258
20:00+11юв3527100 0.0 1014149